Regional Weather Roundup
Issued by NWS Upton, NY

Home | Current Version | Previous Version | Text Only | Print | Product List | Glossary On
Versions: 1 2 3 4 5 6 7 8 9 10 11 12 13 14 15 16 17 18 19 20 21 22 23 24 25 26 27
000
ASUS41 KOKX 231005
RWROKX

REGIONAL WEATHER ROUNDUP
NATIONAL WEATHER SERVICE NEW YORK NY
600 AM EDT WED APR 23 2014

NOTE: "FAIR" INDICATES FEW OR NO CLOUDS BELOW 12,000 FEET WITH NO
SIGNIFICANT WEATHER AND/OR OBSTRUCTIONS TO VISIBILITY.

NYZ071-072-176-178-NJZ106-104-231100-
NEW YORK CITY METRO AREA


CITY           SKY/WX    TMP DP  RH WIND       PRES   REMARKS
CENTRAL PARK   CLOUDY    51  39  63 W8G25     29.57R
LAGUARDIA APRT CLOUDY    51  39  63 NW20      29.54R
KENNEDY INTL   CLOUDY    54  42  64 NW18G26   29.54R
NEWARK/LIBERTY MOCLDY    51  36  56 NW20G28   29.56R
TETERBORO      CLOUDY    52  38  58 NW17G24   29.54R
$$

NYZ177-179-078>081-231100-
LONG ISLAND NEW YORK

CITY           SKY/WX    TMP DP  RH WIND       PRES   REMARKS
FARMINGDALE    MOCLDY    53  44  71 NW10G18   29.51R
ISLIP          CLOUDY    54  47  77 NW13      29.48R
SHIRLEY        CLOUDY    51  49  92 NW8       29.49R FOG
WESTHAMPTON    CLOUDY    45  43  93 CALM      29.49R FOG
MONTAUK POINT    N/A     51  48  89 VRB6      29.48R
$$

NYZ052-065-067-231100-
HUDSON VALLEY

CITY           SKY/WX    TMP DP  RH WIND       PRES   REMARKS
WHITE PLAINS   MOCLDY    49  40  71 NW20      29.51R
NEWBURGH       CLOUDY    46  41  81 W16       29.55R
MONTGOMERY     CLOUDY    47  37  68 W8        29.55R
POUGHKEEPSIE   RAIN      48  44  86 N6        29.53R FOG
ALBANY         CLOUDY    45  36  70 NW15G24   29.56R
$$

NJZ001-105-106-008-010-013-015-019>022-104-231100-
NEW JERSEY

CITY           SKY/WX    TMP DP  RH WIND       PRES   REMARKS
NEWARK/LIBERTY MOCLDY    51  36  56 NW20G28   29.56R
TETERBORO      CLOUDY    52  38  58 NW17G24   29.54R
CALDWELL       CLOUDY    49  34  56 NW12G18   29.58R
MORRISTOWN     CLOUDY    52  32  46 W13G20    29.58R
SOMERVILLE     CLOUDY    49  31  49 NW9       29.58R
LINDEN         CLOUDY    53  35  52 NW18G30   29.59R
SUSSEX         CLOUDY    48  34  58 W8        29.58R
ANDOVER          N/A     46  32  58 VRB5      29.59R
TRENTON        PTCLDY    48  31  51 NW10G22   29.60R
MILLVILLE      CLEAR     48  34  58 NW10      29.65S
ATLANTIC CITY  CLEAR     48  32  53 NW14      29.62R
WRIGHTSTOWN    MOCLDY    48  32  54 NW14G21   29.59R
TOMS RIVER     CLOUDY    48  30  49 W14G25    29.60R
BELMAR         CLOUDY    50  30  46 W20       29.57R
$$

PAZ047>061-062-071-231100-
EASTERN PENNSYLVANIA

CITY           SKY/WX    TMP DP  RH WIND       PRES   REMARKS
PHILADELPHIA   PTCLDY    50  31  48 W14       29.65S
ALLENTOWN      CLOUDY    47  33  58 NW10      29.63R
SCRANTON       CLOUDY    42  35  76 NW14      29.63R
$$

CTZ002-004>006-009-010-012-RIZ004-006-007-MAZ004-011-015-231100-
SOUTHERN NEW ENGLAND
 IN CT

CITY           SKY/WX    TMP DP  RH WIND       PRES   REMARKS
BRADLEY INTL   CLOUDY    49  42  77 N12       29.49R
HARTFORD       CLOUDY    50  42  74 NW9       29.50R
DANBURY        CLOUDY    49  42  77 NW5       29.52R
WTRBRY/OXFORD  CLOUDY    46  39  76 N10G17    29.52R
BRIDGEPORT     CLOUDY    53  45  74 N8        29.49R
MERIDEN        CLOUDY    51  42  71 N8        29.50R
NEW HAVEN      CLOUDY    53  42  66 N13G20    29.47S
CHESTER        PTSUNNY   52  45  76 NW8       29.47S
GROTON         CLOUDY    47  46  97 CALM      29.45S
WILLIMANTIC    CLOUDY    51  45  79 N6        29.46F

 IN RI

CITY           SKY/WX    TMP DP  RH WIND       PRES   REMARKS
PROVIDENCE     PTCLDY    48  46  93 CALM      29.44S
BLOCK ISLAND   MOCLDY    46  43  87 SW7       29.46R
WESTERLY       CLOUDY    47  45  93 CALM      29.46R FOG

 IN MA

CITY           SKY/WX    TMP DP  RH WIND       PRES   REMARKS
BOSTON         MOCLDY    52  49  89 SW3       29.44S
WORCESTER      MOCLDY    48  44  86 W16       29.46R
WESTFIELD      CLOUDY    48  41  76 NW8       29.49S
PROVINCETOWN   CLOUDY    46  45  93 MISG      29.45S VSB<1/4
NANTUCKET      PTCLDY    45  43  93 SW7       29.46R
$$

ANZ330-335-338-340-345-350-353-355-231100-
COASTAL MARINE OBSERVATIONS


STATION/POSITION TIME  SKY/WX   TEMP    WIND        PRES    VSBY  WAVE
                                AIR SEA DIR/SP/G                  HT/PER
                 (UTC)          (F)     (DEG/KT/KT) (MB)    (MI)  (FT/S)
NY HARB ENTRANCE 1000            50 47  VRB 17/ 23   999.6
4S FIRE IS       0900               47                N/A           4/ 8
23SW MTP         1000            46 42  250/ 10/ 12  997.7          3/ 8
HUDSON CANYON    0900            49 45  270/ 12/ 14  999.3          5/ 9
EXECUTION ROCKS  1000            52 46  310/ 17/ 25   N/A
WESTERN LI SOUND 1000            52     300/ 14/ 19   N/A           0
CENTRAL LI SOUND 1000            45 43  260/  4/  6   N/A           0
EASTERN LI SOUND NOT AVBL
ROBBINS REEF     1000            51     310/ 19/ 24   N/A
$$


>>>>>>>>>>>>>>>>>>>>>>>>>>>> KEY <<<<<<<<<<<<<<<<<<<<<<<<<<<
>                                                          <
>     SKY/WX - SKY CONDITION/PRESENT WEATHER               <
>     TMP    - TEMPERATURE IN FAHRENHEIT                   <
>     DP     - DEWPOINT IN FAHRENHEIT                      <
>     RH     - RELATIVE HUMIDITY IN PERCENT                <
>     WIND   - DIRECTION AND SPEED IN MPH                  <
>     PRES   - MEAN SEA LEVEL PRESSURE IN INCHES OF HG     <
>     WCI    - WIND CHILL INDEX                            <
>     VSB    - VISIBILITY IN MILES                         <
>     HX     - HEAT INDEX                                  <
>     TC     - TEMPERATURE IN CELSIUS                      <
>     VRB    - VARIABLE WIND DIRECTION                     <
>                                                          <
>>>>>>>>>>>>>>>>>>>>>>>>>>>> KEY <<<<<<<<<<<<<<<<<<<<<<<<<<<





USA.gov is the U.S. government's official web portal to all federal, state and local government web resources and services.